Flag for South Africa Weather past 2 weeks in Bloemfontein, South Africa

Now
77 °F

Scattered clouds.


Feels Like: 78 °F
Forecast: 56 / 82 °F
Wind: 8 mph from South

Location: Bloemfontein Airport

Current Time: Mar 1, 2015 at 1:55:18 PM

Latest Report: Mar 1, 2015 at 1:00 PM


Visibility: N/A

Pressure: 30.01 "Hg

Humidity: 42%

Dew point: 52 °F

Location of BloemfonteinLocation

Historic Weather in Bloemfontein — Graph

°F

Bloemfontein temperature yesterday

Maximum temperature yesterday: 79 °F (at 3:00 PM)
Minimum temperature yesterday: 57 °F (at 11:00 PM)
Average temperature yesterday: 67 °F

Past Weeks' High & Low Weather Summary

 TemperatureHumidityPressure
High95 °F (Feb 20, 4:00 PM)94% (Feb 18, 7:00 AM)30.30 "Hg (Feb 18, 7:00 AM)
Low45 °F (Feb 16, 5:00 AM)10% (Feb 20, 5:00 PM)29.92 "Hg (Feb 14, 4:00 PM)
Average70 °F51%30.08 "Hg
* Reported Feb 14 12:00 Noon — Mar 1 12:00 Noon, Bloemfontein, Weather by CustomWeather, © 2015

Note: Actual official high and low records may vary slightly from our data, if they occured in-between our weather recording intervals... More about our weather records

Advertising

Bloemfontein weather history for previous 24 hours

 ConditionsComfort  
Time TempWeatherWind HumidityBarometerVisibility
12:00 PM
Sun, Mar 1
75 °FPassing clouds.7 mph44%30.04 "HgN/A
11:00 AM75 °FPassing clouds.1 mph41%30.09 "HgN/A
10:00 AM68 °FPassing clouds.2 mph64%30.09 "HgN/A
9:00 AM64 °FSunny.3 mph68%30.09 "Hg10 mi
8:00 AM63 °FSunny.1 mph73%30.09 "Hg10 mi
7:00 AM55 °FPassing clouds.5 mph88%30.07 "HgN/A
6:00 AM52 °FSunny.2 mph94%30.07 "Hg10 mi
5:00 AM52 °FClear.No wind88%30.07 "Hg10 mi
4:00 AM54 °FCool.3 mph88%30.04 "HgN/A
3:00 AM55 °FCool.5 mph88%30.07 "HgN/A
2:00 AM55 °FCool.2 mph88%30.07 "HgN/A
1:00 AM55 °FCool.2 mph88%30.09 "HgN/A
12:00 AM57 °FCool.3 mph82%30.09 "HgN/A
11:00 PM
Sat, Feb 28
57 °FCool.3 mph82%30.09 "HgN/A
10:00 PM61 °FCool.6 mph72%30.12 "HgN/A
9:00 PM63 °FMild.10 mph77%30.12 "HgN/A
8:00 PM66 °FPassing clouds.8 mph68%30.09 "HgN/A
7:00 PM68 °FPassing clouds.7 mph56%30.07 "HgN/A
6:00 PM70 °FThunderstorms. Passing clouds.10 mph69%30.01 "HgN/A
5:00 PM77 °FScattered clouds.No wind34%30.04 "HgN/A
4:00 PM77 °FScattered clouds.6 mph44%30.04 "HgN/A
3:00 PM79 °FScattered clouds.5 mph42%30.04 "HgN/A
2:00 PM75 °FScattered clouds.5 mph44%30.07 "HgN/A
1:00 PM75 °FScattered clouds.6 mph44%30.12 "HgN/A
Weather by CustomWeather, © 2015

See weather overviewHow to use our weather pages